This demonstration page uses our WeatherBlox Daily Observations layout. Learn more.

36.17497, -115.13722

Hourly Observations for April 16, 2018

Temp ( °F °C ) Dew Point ( °F °C ) Humidity (%) Winds ( mph kmh ) Pressure ( in mb ) Visibility ( mi km ) Precip ( " mm )
12:53 am 00:53 Clear 69 20.6 20 -6.7 15 15 S 8 13 29.77 1008 10 16.09344 0 0
1:53 am 01:53 Clear 69 20.6 21 -6.1 16 16 SSW 15 24 29.74 1007 10 16.09344 0 0
2:53 am 02:53 Clear 68 20 22 -5.6 17 17 SSW 12 19 29.74 1007 10 16.09344 0 0
3:53 am 03:53 Clear 67 19.4 20 -6.7 17 17 SSW 14 22 29.74 1007 10 16.09344 0 0
4:53 am 04:53 Clear 66 18.9 21 -6.1 18 18 S 17 28 29.74 1007 10 16.09344 0 0
5:53 am 05:53 Clear 65 18.3 20 -6.7 18 18 S 18 30 29.74 1007 10 16.09344 0 0
6:53 am 06:53 Sunny 65 18.3 18 -7.8 16 16 SSW 16 26 29.77 1008 10 16.09344 0 0
7:53 am 07:53 Sunny 66 18.9 17 -8.3 15 15 SSW 17 28 29.77 1008 10 16.09344 0 0
8:53 am 08:53 Sunny 69 20.6 17 -8.3 14 14 SSW 17 28 29.77 1008 10 16.09344 0 0
9:53 am 09:53 Sunny 71 21.7 17 -8.3 13 13 SSW 23 37 29.77 1008 10 16.09344 0 0
10:53 am 10:53 Sunny 74 23.3 19 -7.2 12 12 SSW 20 31 29.77 1008 10 16.09344 0 0
11:53 am 11:53 Sunny 77 25 19 -7.2 11 11 SW 28 44 29.74 1007 10 16.09344 0 0
12:53 pm 12:53 Sunny 79 26.1 16 -8.9 9 9 SW 36 57 29.71 1006 10 16.09344 0 0
1:53 pm 13:53 Sunny 80 26.7 16 -8.9 9 9 SW 32 52 29.65 1004 10 16.09344 0 0
2:53 pm 14:53 Sunny 79 26.1 18 -7.8 10 10 WSW 29 46 29.65 1004 10 16.09344 0 0
3:53 pm 15:53 Sunny 78 25.6 22 -5.6 12 12 WSW 21 33 29.62 1003 10 16.09344 0 0
4:53 pm 16:53 Sunny 75 23.9 25 -3.9 15 15 WSW 28 44 29.59 1002 10 16.09344 0 0
5:53 pm 17:53 Sunny 71 21.7 24 -4.4 17 17 WSW 23 37 29.62 1003 10 16.09344 0 0
6:53 pm 18:53 Sunny 65 18.3 23 -5 20 20 W 25 41 29.65 1004 10 16.09344 0 0
7:53 pm 19:53 Clear 61 16.1 21 -6.1 21 21 W 29 46 29.68 1005 10 16.09344 0 0
8:53 pm 20:53 Clear 58 14.4 21 -6.1 24 24 W 29 46 29.74 1007 10 16.09344 0 0
9:53 pm 21:53 Clear 56 13.3 24 -4.4 29 29 WSW 22 35 29.8 1009 10 16.09344 0 0
10:53 pm 22:53 Clear 55 12.8 22 -5.6 28 28 WSW 17 28 29.8 1009 10 16.09344 0 0
11:53 pm 23:53 Clear 52 11.1 19 -7.2 27 27 W 21 33 29.85 1011 10 16.09344 0 0

Powered by AerisWeather